Regional Weather Roundup
Issued by NWS State College, PA

Home | Current Version | Previous Version | Graphics & Text | Print | Product List | Glossary On
Versions: 1 2 3 4 5 6 7 8 9 10 11 12 13 14 15 16 17 18 19 20 21 22 23 24 25 26 27 28 29 30 31 32 33 34 35 36 37 38 39 40 41 42 43 44 45 46 47 48 49 50
000
ASUS41 KCTP 051910
RWRCTP

REGIONAL WEATHER ROUNDUP
NATIONAL WEATHER SERVICE STATE COLLEGE PA
200 PM EST THU MAR 05 2015

Note: "fair" indicates few or no clouds below 12,000 feet with no
significant weather and/or obstructions to visibility.

* = STATION THAT DOES NOT REPORT PRECIPITATION /E.G. RAIN...SNOW...ETC/
    THUNDER OR FOG.

PAZ002>004-007>009-013>016-020>023-029>032-052000-
WESTERN PENNSYLVANIA

CITY           SKY/WX    TMP DP  RH WIND       PRES   REMARKS
ERIE           PTSUNNY   13  -1  54 NW8       30.36R WCI   2
MEADVILLE      CLOUDY    11  -4  51 N10       30.24F WCI  -3
FRANKLIN*      CLOUDY    12  -2  52 W9        30.23S WCI   0
NEW CASTLE     FAIR      13  -2  51 N7        30.30R WCI   3
BEAVER COUNTY  SUNNY     16   0  48 NW8       30.26F WCI   5
BUTLER*        CLOUDY    16   0  48 NW7       30.26S WCI   6
PITTSBURGH INT CLOUDY    16   2  54 NW12      30.25F WCI   3
PITTSBURGH     CLOUDY    16   3  56 NW8       30.24R WCI   5
INDIANA*       CLOUDY    16   5  62 VRB6      30.23F WCI   7
LATROBE        PTSUNNY   16   7  67 CALM      30.24F
WASHINGTON CO* CLOUDY    18   3  53 N9        30.25F WCI   6
$$

PAZ004>006-010>012-017>019-024>028-033>037-041-042-045-046-049>053-052000-
CENTRAL PENNSYLVANIA

CITY           SKY/WX    TMP DP  RH WIND       PRES   REMARKS
BRADFORD       CLOUDY    10  -4  53 N10       30.11F WCI  -4
DUBOIS         CLOUDY    14  -4  44 NW9       30.15S WCI   2
CLEARFIELD     MIX PCPN  16  -3  43 W10       30.17S WCI   4
JOHNSTOWN      CLOUDY    12   6  77 NW10      30.09F WCI  -1
ALTOONA        CLOUDY    18   4  54 NW12      30.15S WCI   5
STATE COLLEGE  CLOUDY    19   0  42 NW8       30.16F WCI   9
WILLIAMSPORT   CLOUDY    20   0  41 NW9       30.21F WCI   9
SELINSGROVE    CLOUDY    22   4  46 N14       30.20F WCI   9
FT INDIANTOWN  LGT SNOW  20  12  73 VRB7      30.19S VSB 3/4 WCI  11
CAPITAL CITY   LGT SNOW  21  13  71 N10       30.21R WCI  10
HARRISBURG     LGT SNOW  22  15  75 NE12      30.20S VSB 3/4 WCI  10
YORK           SNOW      21  18  88 NE3       30.19R VSB 1/4
$$

PAZ038>040-043-044-047-048-054-055-060>062-067>071-052000-
EASTERN PENNSYLVANIA

CITY           SKY/WX    TMP DP  RH WIND       PRES   REMARKS
SCRANTON       CLOUDY    18   2  49 NW12      30.17R WCI   5
MOUNT POCONO   LGT SNOW  13   4  67 N10       30.05R WCI   0
ALLENTOWN      CLOUDY    21   7  54 NW7       30.18S WCI  12
QUAKERTOWN*    CLOUDY    19  16  86 MISG      30.18R
READING        LGT SNOW  21  17  84 CALM      30.19S VSB 1
LANCASTER      LGT SNOW  20  16  84 N10       30.19R VSB 3/4 WCI   9
COATESVILLE    SNOW      23  19  86 N8        30.17R VSB 1/2 WCI  14
POTTSTOWN      FLURRIES  20  15  81 NW5       30.22R WCI  13
BLUE BELL      CLOUDY    23  19  86 N3        30.19R VSB 1
DOYLESTOWN     LGT SNOW  19  17  92 NW3       30.18R FOG
WILLOW GROVE   NOT AVBL
NORTH PHILA    SNOW      24  20  84 N16       30.21R VSB 1/2 WCI  11
PHILADELPHIA   LGT SNOW  25  21  85 N13       30.21R VSB 3/4 WCI  14
$$


USA.gov is the U.S. government's official web portal to all federal, state and local government web resources and services.